CYRJ

Roberval Airport

ICAO Code CYRJ
IATA Code YRJ
Name Roberval Airport
Location Roberval, Quebec, CA
Elevation 586 Feet / 178.6 Meters
Latitude 48.52000000
Longitude -72.26583333
METAR CYRJ 012200Z VRB02KT 40SM VCSH BKN063 BKN110 BKN220 20/13 A2980 RMK SC5AC2CI1 CI TR SLP096 DENSITY ALT 1400FT
Extra information Display Charts and CFS
Display NOTAMS
Runway Length Width Surface Elevation
16 5000 ft 150 ft ASP 586 ft
34 5000 ft 150 ft ASP 560 ft